Tracking 30061 objects as of 8-Dec-2024
HD Live streaming from Space Station
objects crossing your sky now

STARLINK-3888

Track STARLINK-3888 now!
10-day predictions
STARLINK-3888 is classified as:


NORAD ID: 52454
Int'l Code: 2022-049D
Perigee: 545.3 km
Apogee: 548.4 km
Inclination: 53.2 °
Period: 95.4 minutes
Semi major axis: 6917 km
RCS: Unknown
Launch date: May 6, 2022
Source: United States (US)
Launch site: AIR FORCE EASTERN TEST RANGE (AFETR)
Your satellite tracking list
Your tracking list is empty




NASA's NSSDC Master Catalog

Two Line Element Set (TLE):
1 52454U 22049D   24343.11544852 -.00000499  00000-0 -13245-4 0  9996
2 52454  53.2190 318.7588 0002181  86.2842 273.8400 15.08850420143346
Source of the keplerian elements: AFSPC